[[{"header":{"parameterUnit":"m.s-1","parameterCategory":1,"la1":30.2991,"la2":30.254,"lo1":-89.0895,"lo2":-89.0444,"dy":0.0017,"dx":0.0017,"nx":28,"ny":28,"refTime":"2024-08-29T03:00:00:Z","depth":0,"parameterNumber":2,"parameterNumberName":"U-component_of_WINDS"},"data":[0,0,0,0,0,0,0,0,0,0,0,0,0,0,0,0,0,0,0,0,0,0,0,0,0,0,0,0,0,0,0,0,0,0,0,0,0,0,0,0,0,0,0,0,0,0,0,0,0,0,0,0,0,0,0,0,0,0,-2.6307,-2.6306,0,-2.6255,-2.6254,-2.6254,-2.6183,-2.6182,-2.618,-2.6179,-2.6128,-2.6128,-2.6128,0,0,0,0,0,0,0,0,0,0,0,0,0,-2.6346,-2.6345,-2.6307,-2.6306,-2.6306,-2.6255,-2.6254,-2.6254,-2.6183,-2.6182,-2.618,-2.6179,-2.6128,-2.6128,-2.6127,0,0,0,0,0,0,0,0,0,0,0,0,0,-2.6315,-2.6345,-2.6307,-2.6264,-2.626,-2.6255,-2.6254,-2.6254,-2.6183,-2.6182,-2.618,-2.6178,-2.6128,-2.6128,-2.6127,-2.6161,0,0,-2.6126,-2.6126,0,0,0,0,0,0,0,0,-2.6317,-2.6314,-2.6271,-2.6267,-2.6262,-2.6223,-2.6249,-2.6223,-2.6184,-2.6212,-2.6179,-2.6177,-2.6161,-2.6158,-2.6152,-2.6159,-2.6157,-2.6126,-2.6126,-2.6126,-2.6126,0,0,0,0,0,0,0,-2.6319,-2.6316,-2.6286,-2.6271,-2.6265,-2.6248,-2.6242,-2.6244,-2.6198,-2.621,-2.6205,-2.6199,-2.6159,-2.6153,-2.6151,-2.6156,-2.6126,-2.6126,-2.6126,-2.6126,-2.6186,-2.6188,0,0,0,0,0,0,-2.6327,-2.6318,-2.6288,-2.6285,-2.6286,-2.6249,-2.6242,-2.6238,-2.6197,-2.619,-2.6201,-2.6196,-2.6154,-2.6151,-2.6149,-2.6184,-2.6126,-2.6126,-2.6125,-2.6184,-2.6186,-2.6188,0,0,0,0,0,0,-2.6329,-2.6325,-2.629,-2.63,-2.6294,-2.625,-2.6246,-2.6238,-2.6232,-2.6191,-2.6182,-2.6203,-2.6153,-2.6149,-2.6158,-2.6181,-2.6125,-2.6125,-2.6182,-2.6185,-2.6187,-2.6256,0,0,0,0,0,0,-2.633,-2.6326,-2.6338,-2.6301,-2.6294,-2.63,-2.6248,-2.6238,-2.6231,-2.6225,-2.6191,-2.6184,-2.6151,-2.6159,-2.6158,-2.618,-2.6125,-2.618,-2.6183,-2.6186,-2.6251,-2.6261,-2.6269,0,0,0,0,0,-2.6332,-2.636,-2.6339,-2.6336,-2.6308,-2.6302,-2.6298,-2.6259,-2.6233,-2.6245,-2.6219,-2.6185,-2.6179,-2.6161,-2.6159,-2.6181,-2.6178,-2.6182,-2.6186,-2.6247,-2.6259,-2.6268,0,0,0,0,0,0,-2.6402,-2.6355,-2.6331,-2.6348,-2.6329,-2.629,-2.6303,-2.6273,-2.6262,-2.6256,-2.621,-2.6203,-2.6217,-2.62,-2.618,-2.6211,-2.6174,-2.6177,-2.6221,-2.6231,-2.624,-2.6243,-2.6124,0,0,0,0,0,-2.642,-2.6419,-2.6377,-2.6397,-2.6388,-2.6348,-2.6344,-2.6316,-2.6295,-2.6287,-2.6261,-2.6242,-2.6236,-2.6233,-2.6225,-2.6249,-2.624,-2.6263,-2.6272,-2.6279,-2.6283,-2.6293,-2.6302,-2.6202,-2.6202,-2.6202,0,0,-2.6456,-2.643,-2.6432,-2.641,-2.6392,-2.6392,-2.6342,-2.6344,-2.6343,-2.6287,-2.6293,-2.6274,-2.625,-2.6266,-2.6272,-2.6252,-2.6309,-2.6285,-2.6291,-2.629,-2.6298,-2.6307,-2.6316,-2.6205,-2.6204,-2.6204,0,0,-2.6522,-2.6503,-2.6516,-2.6499,-2.6472,-2.6445,-2.6449,-2.6413,-2.6398,-2.6403,-2.6361,-2.636,-2.6351,-2.6335,-2.6326,-2.6386,-2.6354,-2.6385,-2.643,-2.644,-2.6448,-2.6455,-2.6474,-2.6482,-2.6389,-2.6389,-2.639,0,-2.657,-2.6568,-2.6527,-2.653,-2.6522,-2.6471,-2.6484,-2.647,-2.6443,-2.6438,-2.6416,-2.6403,-2.6384,-2.6395,-2.6409,-2.6404,-2.6406,-2.6388,-2.645,-2.6456,-2.6462,-2.648,-2.6488,-2.6393,-2.6393,-2.6392,-2.6392,0,-2.6628,-2.6627,-2.6641,-2.6614,-2.6607,-2.6616,-2.6576,-2.6575,-2.6548,-2.6523,-2.6529,-2.6504,-2.6489,-2.6491,-2.6465,-2.6498,-2.6486,-2.6458,-2.642,-2.6476,-2.6492,-2.6499,-2.6399,-2.6397,-2.6396,-2.6395,0,0,-2.6735,-2.6686,-2.6692,-2.6679,-2.6646,-2.6644,-2.6651,-2.6636,-2.6635,-2.6618,-2.6622,-2.6615,-2.6589,-2.6579,-2.6551,-2.656,-2.6607,-2.6531,-2.6529,-2.6544,-2.664,-2.666,-2.6669,-2.6587,-2.6588,-2.6589,-2.6642,0,-2.6793,-2.68,-2.6763,-2.678,-2.6778,-2.673,-2.6736,-2.6716,-2.6694,-2.6689,-2.6664,-2.6659,-2.6626,-2.6619,-2.6626,-2.66,-2.6626,-2.6596,-2.6589,-2.6589,-2.6594,-2.6678,-2.6699,-2.675,-2.6648,-2.6649,-2.665,0,-2.6861,-2.6847,-2.6864,-2.6829,-2.6826,-2.6832,-2.6815,-2.6811,-2.6788,-2.6771,-2.676,-2.6727,-2.6731,-2.6696,-2.6701,-2.6681,-2.6676,-2.6663,-2.6664,-2.6661,-2.6622,-2.6675,-2.6766,-2.6773,-2.666,-2.6659,-2.6658,0,-2.6936,-2.6921,-2.6929,-2.6919,-2.688,-2.6884,-2.6868,-2.6843,-2.6837,-2.6823,-2.6817,-2.6805,-2.6797,-2.6788,-2.6753,-2.6731,-2.6761,-2.6723,-2.6746,-2.6747,-2.6753,-2.6753,-2.6843,-2.6754,-2.6753,-2.6753,-2.6753,0,-2.7003,-2.7015,-2.6961,-2.6966,-2.6977,-2.6935,-2.6948,-2.6927,-2.6906,-2.6905,-2.6864,-2.6865,-2.6819,-2.6815,-2.6788,-2.6795,-2.6793,-2.6778,-2.6771,-2.6781,-2.6782,-2.6776,-2.677,-2.6755,-2.6755,-2.6755,-2.6754,0,-2.7088,-2.7053,-2.7057,-2.7019,-2.701,-2.702,-2.6987,-2.699,-2.6965,-2.6965,-2.6962,-2.6923,-2.6916,-2.688,-2.6865,-2.6847,-2.6863,-2.6849,-2.687,-2.6865,-2.6889,-2.6886,-2.6976,-2.6985,-2.6892,-2.6893,-2.6894,0,-2.7132,-2.714,-2.7102,-2.7098,-2.7084,-2.7079,-2.7071,-2.7031,-2.7025,-2.6999,-2.7005,-2.6994,-2.6983,-2.6973,-2.6944,-2.6932,-2.6916,-2.6948,-2.6914,-2.6924,-2.6914,-2.6914,-2.6913,-2.6955,-2.6957,-2.6958,-2.6958,0,-2.7214,-2.7196,-2.7187,-2.7171,-2.7163,-2.7149,-2.7133,-2.7132,-2.7087,-2.7083,-2.7074,-2.7065,-2.7049,-2.7039,-2.7022,-2.7005,-2.6974,-2.697,-2.6974,-2.6983,-2.6995,-2.6987,-2.6888,-2.6967,-2.6966,-2.6966,-2.6965,-2.6965,-2.7278,-2.7282,-2.7256,-2.7247,-2.723,-2.7215,-2.7215,-2.719,-2.7182,-2.7165,-2.7142,-2.7136,-2.7113,-2.7086,-2.7072,-2.7067,-2.705,-2.7057,-2.7058,-2.706,-2.7064,-2.6997,-2.7064,-2.7064,-2.7064,-2.7064,-2.7063,0,-2.7357,-2.7337,-2.7329,-2.7307,-2.7299,-2.7271,-2.7251,-2.7247,-2.7242,-2.7222,-2.7212,-2.7202,-2.7191,-2.7161,-2.7147,-2.7149,-2.7135,-2.7147,-2.7146,-2.7142,-2.7082,-2.7078,-2.7159,-2.7159,-2.7159,-2.7159,-2.7159,-2.7159,-2.7396,-2.7401,-2.738,-2.7376,-2.7356,-2.7349,-2.734,-2.7327,-2.7311,-2.7301,-2.7292,-2.7272,-2.7247,-2.7232,-2.7221,-2.7212,-2.7209,-2.7225,-2.7212,-2.7156,-2.7147,-2.7138,-2.7134,-2.7225,-2.7225,-2.7272,-2.7273,-2.7273]},{"header":{"parameterUnit":"m.s-1","parameterCategory":1,"la1":30.2991,"la2":30.254,"lo1":-89.0895,"lo2":-89.0444,"dy":0.0017,"dx":0.0017,"nx":28,"ny":28,"refTime":"2024-08-29T03:00:00:Z","depth":0,"parameterNumber":3,"parameterNumberName":"V-component_of_WINDS"},"data":[0,0,0,0,0,0,0,0,0,0,0,0,0,0,0,0,0,0,0,0,0,0,0,0,0,0,0,0,0,0,0,0,0,0,0,0,0,0,0,0,0,0,0,0,0,0,0,0,0,0,0,0,0,0,0,0,0,0,2.3338,2.3339,0,2.339,2.3391,2.3391,2.3356,2.3355,2.3353,2.3351,2.3402,2.3405,2.3407,0,0,0,0,0,0,0,0,0,0,0,0,0,2.3207,2.3209,2.3338,2.3339,2.3339,2.339,2.3391,2.3391,2.3356,2.3354,2.3353,2.3351,2.3401,2.3404,2.3408,0,0,0,0,0,0,0,0,0,0,0,0,0,2.3262,2.321,2.3338,2.3328,2.3328,2.339,2.3391,2.3392,2.3357,2.3354,2.3352,2.335,2.34,2.3404,2.3408,2.3482,0,0,2.3421,2.3423,0,0,0,0,0,0,0,0,2.3259,2.3266,2.3329,2.3329,2.3329,2.3364,2.3363,2.3422,2.3357,2.3346,2.3351,2.3349,2.3391,2.3396,2.3411,2.3484,2.3486,2.3422,2.3424,2.3426,2.3427,0,0,0,0,0,0,0,2.3255,2.3264,2.3359,2.333,2.333,2.332,2.3326,2.3374,2.3381,2.3347,2.3344,2.3351,2.3391,2.3407,2.3412,2.3487,2.3421,2.3425,2.3428,2.3429,2.3624,2.3627,0,0,0,0,0,0,2.3252,2.3261,2.3357,2.336,2.3287,2.3325,2.3331,2.3355,2.338,2.3382,2.3353,2.3349,2.3401,2.3407,2.3413,2.3501,2.3426,2.343,2.3432,2.3622,2.3625,2.3628,0,0,0,0,0,0,2.325,2.3261,2.3355,2.331,2.3321,2.333,2.3358,2.3357,2.3374,2.3385,2.3386,2.3368,2.3399,2.3407,2.3465,2.3503,2.3432,2.3436,2.3618,2.3623,2.3626,2.3678,0,0,0,0,0,0,2.3246,2.326,2.3289,2.3311,2.3324,2.3407,2.336,2.336,2.3381,2.3377,2.34,2.3401,2.3398,2.3459,2.347,2.3507,2.3439,2.3615,2.362,2.3625,2.3673,2.3683,2.3692,0,0,0,0,0,2.3241,2.3301,2.3291,2.3302,2.336,2.3409,2.3416,2.3412,2.3385,2.3413,2.3421,2.3401,2.3497,2.3466,2.3477,2.3516,2.3613,2.3619,2.3625,2.3669,2.3681,2.3692,0,0,0,0,0,0,2.3282,2.3303,2.3292,2.3361,2.3384,2.3403,2.3439,2.3425,2.3455,2.3449,2.3442,2.3447,2.3508,2.3518,2.3482,2.3589,2.3551,2.3559,2.358,2.3592,2.3602,2.3598,2.3442,0,0,0,0,0,2.3299,2.3338,2.3354,2.3413,2.3425,2.343,2.3451,2.3446,2.3469,2.3478,2.349,2.3512,2.3547,2.357,2.3603,2.3675,2.3679,2.3707,2.3717,2.3725,2.3732,2.377,2.3783,2.3647,2.3647,2.3647,0,0,2.3334,2.3351,2.3376,2.3422,2.3439,2.3478,2.3438,2.3482,2.3511,2.3484,2.354,2.3549,2.3574,2.3639,2.3668,2.3649,2.3771,2.3732,2.3738,2.3741,2.3778,2.3791,2.3802,2.3651,2.365,2.365,0,0,2.3419,2.3436,2.3486,2.3504,2.3531,2.3534,2.3546,2.3568,2.3574,2.363,2.3611,2.3645,2.3706,2.3724,2.3741,2.3834,2.3817,2.3845,2.3894,2.3932,2.3943,2.3952,2.3985,2.3997,2.3852,2.3852,2.3852,0,2.3459,2.3519,2.3514,2.356,2.358,2.3559,2.361,2.3628,2.3663,2.3678,2.3656,2.3733,2.3748,2.3817,2.3839,2.3854,2.3868,2.3842,2.3942,2.3951,2.396,2.3991,2.4004,2.3856,2.3855,2.3855,2.3855,0,2.3566,2.3608,2.3646,2.3682,2.3707,2.3755,2.3758,2.3783,2.3776,2.3782,2.3839,2.3856,2.3893,2.3909,2.3902,2.3977,2.3965,2.3943,2.3904,2.3976,2.4005,2.4017,2.386,2.3859,2.3858,2.3857,0,0,2.3677,2.3711,2.3725,2.3741,2.3769,2.3801,2.3848,2.3885,2.3907,2.3932,2.3971,2.4024,2.4004,2.4024,2.4019,2.4052,2.4124,2.4026,2.4026,2.4043,2.4208,2.4224,2.4238,2.4114,2.4116,2.4118,2.4206,0,2.3763,2.3846,2.3843,2.392,2.3959,2.3939,2.398,2.4002,2.4008,2.4041,2.4048,2.4086,2.4057,2.4069,2.4101,2.4109,2.4157,2.4102,2.4149,2.4151,2.4143,2.4254,2.427,2.4353,2.4218,2.422,2.4221,0,2.3873,2.3904,2.3985,2.4008,2.4024,2.4061,2.4094,2.4127,2.4151,2.4153,2.4176,2.4166,2.4213,2.4174,2.4239,2.4201,2.4221,2.4228,2.4231,2.4234,2.419,2.426,2.4379,2.4392,2.4239,2.4238,2.4236,0,2.3945,2.4007,2.4063,2.4078,2.4106,2.4132,2.4145,2.4167,2.4189,2.4218,2.4233,2.4267,2.4286,2.4312,2.4312,2.4283,2.4378,2.4338,2.438,2.4381,2.44,2.4399,2.4525,2.4414,2.4414,2.4414,2.4413,0,2.4041,2.4091,2.4096,2.413,2.4186,2.4183,2.4238,2.4248,2.4268,2.4304,2.4289,2.4323,2.4321,2.4355,2.4355,2.4409,2.4418,2.4421,2.442,2.4422,2.4421,2.4433,2.4428,2.4417,2.4416,2.4415,2.4415,0,2.413,2.4136,2.4196,2.4218,2.4225,2.4265,2.4284,2.4316,2.4322,2.4368,2.4378,2.4387,2.4427,2.4429,2.4475,2.4475,2.454,2.4533,2.4533,2.4531,2.4573,2.4569,2.4711,2.4729,2.4607,2.4608,2.4609,0,2.4191,2.4229,2.4256,2.428,2.4294,2.4332,2.4355,2.4354,2.4378,2.4409,2.4438,2.4476,2.4507,2.4572,2.4582,2.4617,2.461,2.4658,2.4615,2.4616,2.4611,2.4608,2.4612,2.4665,2.4667,2.4668,2.4669,0,2.4298,2.4298,2.4332,2.4368,2.4396,2.4424,2.4449,2.4469,2.447,2.4499,2.454,2.4564,2.4611,2.4649,2.4684,2.4697,2.4683,2.4682,2.4694,2.4696,2.4694,2.4695,2.4554,2.4679,2.4678,2.4677,2.4676,2.4676,2.4374,2.4407,2.4432,2.447,2.449,2.4514,2.4546,2.4556,2.4591,2.4629,2.4626,2.4672,2.4695,2.474,2.4756,2.4791,2.4775,2.4792,2.4796,2.48,2.4805,2.4689,2.4797,2.4797,2.4797,2.4797,2.4796,0,2.448,2.4495,2.453,2.4567,2.4598,2.4583,2.4611,2.4637,2.4677,2.4701,2.4732,2.4779,2.4817,2.483,2.4867,2.4892,2.4887,2.4902,2.49,2.4903,2.4817,2.4803,2.4906,2.4906,2.4906,2.4906,2.4906,2.4906,2.4538,2.4594,2.4598,2.4663,2.4677,2.4722,2.4739,2.4762,2.4781,2.4834,2.4866,2.4875,2.4894,2.4932,2.4966,2.4969,2.4983,2.5001,2.5001,2.492,2.4909,2.4899,2.4886,2.5004,2.5004,2.5084,2.5085,2.5085]}]]